Regional Weather Roundup
Issued by NWS

Home | Current Version | Previous Version | Graphics & Text | Print | Product List | Glossary On
Versions: 1 2 3 4 5 6 7 8 9 10 11 12 13 14 15 16 17 18 19 20 21 22 23 24 25 26 27 28
000
ASUS45 KCYS 010110
RWRWY

WYOMING REGIONAL WEATHER ROUNDUP
NATIONAL WEATHER SERVICE CHEYENNE WY
700 PM MDT SAT APR 30 2016

NOTE:  "FAIR" INDICATES FEW OR NO CLOUDS BELOW 12,000 FEET
WITH NO SIGNIFICANT WEATHER AND/OR OBSTRUCTIONS TO VISIBILITY.

WYZ001-010200-
YELLOWSTONE NATIONAL PARK

CITY           SKY/WX    TMP DP  RH WIND       PRES   REMARKS
LK YELLOWSTONE   N/A     38  25  59 E6        30.19R WCI  33
W YELLOWSTONE  NOT AVBL

$$
WYZ002>013-054>058-071-098>099-010200-
NORTHERN WYOMING

CITY           SKY/WX    TMP DP  RH WIND       PRES   REMARKS
JACKSON        PTSUNNY   46  30  53 N12       30.07R
CODY           CLOUDY    45  30  57 NW15G21   30.21R
GREYBULL       PTSUNNY   55  24  30 E17G25    30.15R
WORLAND        CLOUDY    47  37  68 SW10      30.16R
SHERIDAN       CLOUDY    48  37  65 W5        30.24R
BUFFALO          N/A    N/A N/A N/A MISG      30.24R
GILLETTE       CLOUDY    47  32  56 N12       30.19R
HULETT         CLOUDY    46  32  57 NE10G18   30.20R
NEWCASTLE      FAIR      45  28  53 N9        30.16R

$$
WYZ014>020-022>026-101>103-010200-
CENTRAL WYOMING

CITY           SKY/WX    TMP DP  RH WIND       PRES   REMARKS
BIG PINEY      PTSUNNY   42  29  59 S12       30.12R
PINEDALE       CLOUDY    41  32  70 S10       30.11S
DUBOIS         CLOUDY    37  30  75 E14G20    30.15R WCI  29
LANDER         LGT RAIN  36  34  92 CALM      30.19R
RIVERTON       LGT RAIN  40  34  79 E10       30.20R WCI  33
CASPER         CLOUDY    39  30  70 NE21G26   30.17R WCI  29
DOUGLAS        CLOUDY    41  33  73 N9        30.17R

$$
WYZ021-027>030-104>119-010200-
SOUTHERN WYOMING

CITY           SKY/WX    TMP DP  RH WIND       PRES   REMARKS
EVANSTON       FAIR      37  28  70 E24G36    30.07S WCI  26
KEMMERER         N/A     34  32  93 E18G25    30.12R FOG     WCI  23
FORT BRIDGER   CLOUDY    37  34  87 E21       30.13R WCI  27
ROCK SPRINGS   PTSUNNY   36  29  75 E25       30.13R WCI  24
DIXON          MOCLDY    40  25  54 NE17      30.09R WCI  31
RAWLINS        CLOUDY    33  30  88 NE15      30.14R FOG     WCI  23
SARATOGA       FAIR      34  27  75 NE16      30.12R WCI  23
LARAMIE        CLOUDY    29  26  89 N12       30.11R WCI  19
CHEYENNE       LGT SNOW  32  29  88 N17G25    30.10R FOG     WCI  21
TORRINGTON     LGT RAIN  40  36  86 N8G18     30.10R WCI  34
PINE BLUFFS    LGT SNOW  32  32 100 N14G20    30.09R WCI  22

$$




USA.gov is the U.S. government's official web portal to all federal, state and local government web resources and services.